Вернуться в каталог

STARLINK-35840

АктивенСвязьVLEO
NORAD 66834·PAYLOAD·🇺🇸 United States

Запущен Dec 2, 2025 с Vandenberg Space Force Base

Loading…

Ближайшие Пролёты (ближайшие 24 часа)

TLE

СвежийSource: CelesTrak SupGP

Эпоха: Sep 15, 2026, 03:50 UTC

1 66834C 25280P   26258.16020833  .00010841  00000+0  90860-3 0  2587
2 66834  70.0013 216.5447 0003625 264.6447  15.3833 14.98318597    17

Отслеживайте STARLINK-35840 в реальном времени с AllMySat

Download on the App Store